This is the latest recevied weather packets stored in our database for station/object WA1OUI. If no packets are shown the sender has not sent any weather packets the latest 10 day(s).
| Time | Temp. | Humidity | Pressure | Rain* | Wind** | Luminosity | Snow |
|---|---|---|---|---|---|---|---|
| 1777742714 | 10° C | 87% | 1009.7 hPa | 0 mm | - | 197 W/m² | - |
| 1777742410 | 9.44° C | 89% | 1010 hPa | 0 mm | - | 124 W/m² | - |
| 1777741500 | 9.44° C | 87% | 1009.4 hPa | 0 mm | - | 106 W/m² | - |
| 1777741196 | 9.44° C | 86% | 1009.6 hPa | 0 mm | - | 161 W/m² | - |
| 1777739983 | 10° C | 89% | 1009.6 hPa | 0.51 mm | - | 88 W/m² | - |
| 1777739679 | 10° C | 88% | 1009.6 hPa | 0 mm | - | 162 W/m² | - |
| 1777739377 | 10° C | 88% | 1009.6 hPa | 1.27 mm | - | 252 W/m² | - |
| 1777739074 | 10° C | 87% | 1009.6 hPa | 1.27 mm | - | 178 W/m² | - |
| 1777738771 | 10° C | 85% | 1009.6 hPa | 1.27 mm | - | 106 W/m² | - |
| 1777738467 | 10.56° C | 83% | 1009.3 hPa | 0 mm | - | 71 W/m² | - |
| 1777738165 | 11.11° C | 81% | 1009.4 hPa | 0 mm | - | 62 W/m² | - |
| 1777737863 | 11.11° C | 78% | 1009.4 hPa | 0 mm | - | 103 W/m² | - |
| 1777737562 | 11.11° C | 77% | 1009.3 hPa | 0 mm | - | 167 W/m² | - |
| 1777736955 | 11.67° C | 77% | 1009.4 hPa | 0 mm | - | 70 W/m² | - |
| 1777736055 | 11.67° C | 77% | 1009.3 hPa | 0 mm | - | 194 W/m² | - |
| 1777735752 | 11.67° C | 77% | 1009.5 hPa | 0 mm | - | 264 W/m² | - |
| 1777735449 | 11.67° C | 82% | 1009.6 hPa | 0 mm | - | 168 W/m² | - |
| 1777735147 | 11.11° C | 80% | 1009.6 hPa | 0 mm | - | 139 W/m² | - |
| 1777734843 | 11.11° C | 82% | 1009.6 hPa | 0 mm | - | 121 W/m² | - |
| 1777734541 | 11.11° C | 84% | 1009.6 hPa | 0 mm | - | 85 W/m² | - |
| 1777734237 | 11.11° C | 81% | 1009.6 hPa | 0 mm | - | 60 W/m² | - |
| 1777733933 | 11.11° C | 84% | 1009.7 hPa | 0 mm | - | 53 W/m² | - |
| 1777733630 | 11.11° C | 83% | 1009.6 hPa | 0 mm | - | 63 W/m² | - |
| 1777733326 | 11.11° C | 81% | 1009.7 hPa | 0 mm | - | 70 W/m² | - |
| 1777733024 | 11.11° C | 85% | 1009.9 hPa | 0 mm | - | 90 W/m² | - |
* Rain latest hour (hover to see other rain measurements)
** Current wind speed in m/s (hover to see current wind gust speed)